N1NCB-3 Weather Reports


Display with metric or nautical units.
time (UTC)temp
F
wind
direction
speed
MPH
gust
MPH
rain 1hr
in
rain 24hr
in
rain mn
in
humidity
%
barometer
mb
20260504150620 57 180 0.0 0.0 0.00 0.00 0.00 60 1003.7
20260504150120 57 247 0.0 0.0 0.00 0.00 0.00 59 1003.7
20260504141120 55 247 0.0 0.0 0.00 0.00 0.00 60 1004.0
20260504140620 55 157 0.0 2.0 0.00 0.00 0.00 61 1004.4
20260504140120 55 225 2.0 3.0 0.00 0.00 0.00 60 1004.4
20260504130621 52 202 4.0 6.0 0.00 0.00 0.00 61 1004.7
20260504130121 52 135 0.0 0.0 0.00 0.00 0.00 62 1004.7
20260504120121 47 180 4.0 4.0 0.00 0.00 0.00 65 1005.4
20260504110621 45 202 0.0 0.0 0.00 0.00 0.00 65 1005.0
20260504110121 45 157 0.0 0.0 0.00 0.00 0.00 65 1005.4
20260504100121 45 202 0.0 1.0 0.00 0.00 0.00 65 1005.0
20260504090121 43 202 0.0 0.0 0.00 0.00 0.00 67 1004.7
20260504081621 42 180 0.0 0.0 0.00 0.00 0.00 69 1004.7
20260504081121 42 202 0.0 0.0 0.00 0.00 0.00 69 1004.4
20260504080621 42 157 0.0 0.0 0.00 0.00 0.00 69 1004.7
20260504080121 42 157 0.0 0.0 0.00 0.00 0.00 69 1004.7
20260504070121 42 135 0.0 0.0 0.00 0.00 0.00 71 1004.7
20260504060121 40 135 0.0 1.0 0.00 0.00 0.00 75 1004.4
20260504050622 39 157 0.0 0.0 0.00 0.00 0.00 74 1004.4
20260504050122 39 292 0.0 0.0 0.00 0.00 0.00 73 1004.4
20260504045622 39 292 0.0 0.0 0.00 0.00 0.00 73 1004.4
20260504045122 39 292 0.0 0.0 0.00 0.00 0.00 73 1004.4
20260504044622 40 315 0.0 0.0 0.00 0.00 0.00 73 1004.4
20260504044122 40 315 0.0 0.0 0.00 0.00 0.00 72 1004.4
20260504043622 40 315 0.0 0.0 0.00 0.00 0.00 72 1004.4
20260504043122 40 315 0.0 0.0 0.00 0.00 0.00 73 1004.4
20260504042622 40 315 0.0 0.0 0.00 0.00 0.00 72 1004.4
20260504042122 40 315 0.0 0.0 0.00 0.00 0.00 71 1004.4
20260504041622 41 315 0.0 0.0 0.00 0.00 0.00 70 1004.4
20260504041122 41 315 0.0 0.0 0.00 0.00 0.00 69 1004.4
20260504040622 41 315 0.0 0.0 0.00 0.00 0.00 69 1004.4
20260504040122 41 202 0.0 0.0 0.00 0.00 0.00 68 1004.4
20260504035622 42 202 0.0 0.0 0.00 0.00 0.00 67 1004.4
20260504035122 42 202 0.0 0.0 0.00 0.00 0.00 67 1004.4
20260504034622 42 202 0.0 0.0 0.00 0.00 0.00 66 1004.4
20260504034122 42 202 0.0 0.0 0.00 0.00 0.00 66 1004.0
20260504033622 43 202 0.0 0.0 0.00 0.00 0.00 64 1004.0
20260504033122 43 225 0.0 0.0 0.00 0.00 0.00 63 1004.0
20260504032622 43 157 0.0 0.0 0.00 0.00 0.00 63 1004.0
20260504032122 43 180 0.0 0.0 0.00 0.00 0.00 63 1004.0
20260504031622 43 180 0.0 0.0 0.00 0.00 0.00 62 1004.0
20260504031122 43 225 0.0 0.0 0.00 0.00 0.00 62 1004.0
20260504030622 43 202 0.0 0.0 0.00 0.00 0.00 62 1004.0
20260504030122 44 180 0.0 0.0 0.00 0.00 0.00 61 1004.0
20260504025622 44 157 0.0 0.0 0.00 0.00 0.00 61 1004.0
20260504025122 44 202 0.0 0.0 0.00 0.00 0.00 61 1004.0
20260504024622 44 202 0.0 0.0 0.00 0.00 0.00 61 1004.0
20260504024122 44 180 0.0 0.0 0.00 0.00 0.00 60 1004.0
20260504023622 44 157 0.0 0.0 0.00 0.00 0.00 60 1004.0
20260504023122 44 180 0.0 0.0 0.00 0.00 0.00 60 1004.0
20260504022622 44 180 0.0 0.0 0.00 0.00 0.00 59 1004.0
20260504022122 44 225 0.0 0.0 0.00 0.00 0.00 59 1004.0
20260504021622 44 157 0.0 0.0 0.00 0.00 0.00 58 1004.0
20260504021122 44 157 0.0 0.0 0.00 0.00 0.00 58 1004.0
20260504020622 44 157 0.0 0.0 0.00 0.00 0.00 58 1004.0
20260504020122 45 157 0.0 1.0 0.00 0.00 0.00 57 1004.0
20260504015622 45 157 1.0 1.0 0.00 0.00 0.00 57 1004.0
20260504015122 45 225 0.0 0.0 0.00 0.00 0.00 57 1004.0
20260504014622 45 157 0.0 0.0 0.00 0.00 0.00 56 1004.0
20260504014122 45 180 0.0 0.0 0.00 0.00 0.00 56 1003.7
20260504013622 45 180 0.0 0.0 0.00 0.00 0.00 56 1003.7
20260504013122 46 135 0.0 0.0 0.00 0.00 0.00 55 1003.7
20260504012622 46 135 0.0 0.0 0.00 0.00 0.00 55 1003.7
20260504012122 46 157 0.0 0.0 0.00 0.00 0.00 55 1003.7
20260504011622 46 112 0.0 0.0 0.00 0.00 0.00 55 1003.7
20260504011122 46 157 0.0 0.0 0.00 0.00 0.00 54 1003.7
20260504010622 46 202 0.0 1.0 0.00 0.00 0.00 54 1003.3
20260504010122 46 180 1.0 2.0 0.00 0.00 0.00 53 1003.3
20260504005622 46 135 2.0 2.0 0.00 0.00 0.00 53 1003.3
20260504005122 46 225 0.0 0.0 0.00 0.00 0.00 53 1003.3
20260504004622 46 157 0.0 0.0 0.00 0.00 0.00 53 1003.0
20260504004122 46 180 0.0 2.0 0.00 0.00 0.00 53 1003.0
20260504003622 46 180 2.0 2.0 0.00 0.00 0.00 53 1003.0
20260504003122 47 157 0.0 1.0 0.00 0.00 0.00 52 1002.7
20260504002622 47 180 1.0 1.0 0.00 0.00 0.00 52 1002.7